This is the latest recevied weather packets stored in our database for station/object SV9TNF-52. If no packets are shown the sender has not sent any weather packets the latest 10 day(s).
| Time | Temp. | Humidity | Pressure | Rain* | Wind** | Luminosity | Snow |
|---|---|---|---|---|---|---|---|
| 1788336219 | 31.67° C | 51% | 1020.3 hPa | 0 mm | 4.02 m/s, 324° | - | - |
| 1788335919 | 32.22° C | 48% | 1020.3 hPa | 0 mm | 3.58 m/s, 239° | - | - |
| 1788335619 | 32.22° C | 48% | 1020.3 hPa | 0 mm | 3.13 m/s, 335° | - | - |
| 1788335320 | 32.22° C | 51% | 1020.3 hPa | 0 mm | 3.58 m/s, 280° | - | - |
| 1788335019 | 31.67° C | 53% | 1020.3 hPa | 0 mm | 3.13 m/s, 276° | - | - |
| 1788334719 | 31.67° C | 53% | 1020.3 hPa | 0 mm | 5.36 m/s, 264° | - | - |
| 1788334419 | 31.67° C | 53% | 1020.3 hPa | 0 mm | 3.13 m/s, 263° | - | - |
| 1788334119 | 31.67° C | 52% | 1020.3 hPa | 0 mm | 3.58 m/s, 258° | - | - |
| 1788333819 | 31.67° C | 53% | 1020.3 hPa | 0 mm | 4.92 m/s, 279° | - | - |
| 1788333519 | 31.67° C | 54% | 1020.3 hPa | 0 mm | 4.02 m/s, 267° | - | - |
| 1788333219 | 31.11° C | 56% | 1020.3 hPa | 0 mm | 1.79 m/s, 247° | - | - |
| 1788332918 | 31.11° C | 54% | 1020.3 hPa | 0 mm | 1.79 m/s, 256° | - | - |
| 1788332618 | 31.11° C | 55% | 1020.3 hPa | 0 mm | 3.13 m/s, 240° | - | - |
| 1788332318 | 31.11° C | 54% | 1020 hPa | 0 mm | 4.02 m/s, 27° | - | - |
| 1788332018 | 31.11° C | 54% | 1020 hPa | 0 mm | 1.34 m/s, 282° | - | - |
| 1788331718 | 31.11° C | 55% | 1020 hPa | 0 mm | 2.24 m/s, 241° | - | - |
| 1788331418 | 31.67° C | 54% | 1020.3 hPa | 0 mm | 1.34 m/s, 246° | - | - |
| 1788331118 | 31.67° C | 52% | 1020.3 hPa | 0 mm | 1.79 m/s, 234° | - | - |
| 1788330818 | 31.67° C | 51% | 1020 hPa | 0 mm | 0 m/s | - | - |
| 1788330518 | 31.67° C | 50% | 1020 hPa | 0 mm | 1.34 m/s, 253° | - | - |
| 1788330217 | 30.56° C | 50% | 1020.3 hPa | 0 mm | 3.13 m/s, 264° | - | - |
| 1788329917 | 30.56° C | 51% | 1020.3 hPa | 0 mm | 2.24 m/s, 258° | - | - |
| 1788329618 | 30.56° C | 48% | 1020.3 hPa | 0 mm | 1.34 m/s, 290° | - | - |
| 1788329317 | 30° C | 46% | 1020.3 hPa | 0 mm | 1.79 m/s, 273° | - | - |
| 1788329017 | 30° C | 46% | 1020.3 hPa | 0 mm | 0.89 m/s, 249° | - | - |
* Rain latest hour (hover to see other rain measurements)
** Current wind speed in m/s (hover to see current wind gust speed)